Regional Weather Roundup
Issued by NWS Upton, NY

Current Version | Previous Version | Text Only | Print | Product List | Glossary On
Versions: 1 2 3 4 5 6 7 8 9 10 11 12 13 14 15 16 17 18 19 20 21 22 23 24 25 26 27 28 29 30 31 32 33 34 35 36 37 38 39 40 41 42 43 44 45 46 47 48 49 50
547
ASUS41 KOKX 210208
RWROKX

REGIONAL WEATHER ROUNDUP
NATIONAL WEATHER SERVICE NEW YORK NY
900 PM EST FRI JAN 20 2017

NOTE: "FAIR" INDICATES FEW OR NO CLOUDS BELOW 12,000 FEET WITH NO
SIGNIFICANT WEATHER AND/OR OBSTRUCTIONS TO VISIBILITY.

NYZ071-072-176-178-NJZ106-104-210300-
NEW YORK CITY METRO AREA

CITY           SKY/WX    TMP DP  RH WIND       PRES   REMARKS
Central Park   CLOUDY    41  39  93 S6        29.95R
Wall St Helipt CLOUDY    42  39  89 CALM      29.94S
LaGuardia APRT CLOUDY    43  37  79 SE7       29.93S
Kennedy INTL   CLOUDY    42  41  96 E6        29.94S
Breezy Point     N/A     39 N/A N/A E3          N/A
Newark/Liberty DRIZZLE   42  40  92 CALM      29.93S FOG
Teterboro      CLOUDY    43  40  89 CALM      29.93R
$$

NYZ177-179-078>081-210300-
LONG ISLAND NEW YORK

CITY           SKY/WX    TMP DP  RH WIND       PRES   REMARKS
Jones Beach      N/A     39 N/A N/A E2          N/A
Matinecock PT  NOT AVBL
Farmingdale    CLOUDY    41  38  89 CALM      29.93F
MacArthur/ISP  LGT RAIN  41  39  93 E5        29.92F
Shirley        CLOUDY    40  39  97 CALM      29.94S
Westhampton    CLOUDY    41  38  89 E3        29.94F
Southampton    NOT AVBL
Bridgehampton  NOT AVBL
East Hampton   DRIZZLE   41  38  89 E3        29.94S
Montauk          N/A     42  36  79 CALM      29.96S
$$

NYZ052-065-067-210300-
HUDSON VALLEY

CITY           SKY/WX    TMP DP  RH WIND       PRES   REMARKS
White Plains   LGT RAIN  38  36  92 CALM      29.91S FOG
Newburgh       CLOUDY    37  37 100 CALM      29.91F FOG
Montgomery     LGT RAIN  38  36  92 CALM      29.90S FOG
Poughkeepsie   LGT RAIN  37  36  96 CALM      29.91S FOG
Albany         CLOUDY    39  33  79 S8        29.89F WCI  33
$$

NJZ001-105-106-008-010-013-015-019>022-104-210300-
NEW JERSEY

CITY           SKY/WX    TMP DP  RH WIND       PRES   REMARKS
Newark/Liberty DRIZZLE   42  40  92 CALM      29.93S FOG
Teterboro      CLOUDY    43  40  89 CALM      29.93R
Caldwell       CLOUDY    41  39  93 S3        29.93R FOG
Somerville     CLOUDY    40  39  97 CALM      29.91S FOG
Linden         CLOUDY    41  39  93 CALM      29.93S FOG
Sussex         LGT RAIN  38  38 100 CALM      29.91R VSB 1/2
Andover          N/A     38  37  97 CALM      29.91R
Trenton        CLOUDY    41  40  96 CALM      29.92R FOG
Millville      MOCLDY    41  41 100 CALM      29.91F FOG
Atlantic City  CLOUDY    42  40  92 SE3       29.92S
Wrightstown    CLOUDY    41  40  96 CALM      29.89S
Toms River     CLOUDY    41  40  96 CALM      29.92F FOG
Belmar         CLOUDY    41  40  96 CALM      29.93S
$$

PAZ047>061-062-071-210300-
EASTERN PENNSYLVANIA

CITY           SKY/WX    TMP DP  RH WIND       PRES   REMARKS
Philadelphia   CLOUDY    42  40  92 CALM      29.93R
Allentown      CLOUDY    39  36  89 NE3       29.90F FOG
Scranton       CLOUDY    39  38  96 SW3       29.85F
$$

CTZ002-004>006-009-010-012-RIZ004-006-007-MAZ004-011-015-210300-
SOUTHERN NEW ENGLAND
 IN CT

CITY           SKY/WX    TMP DP  RH WIND       PRES   REMARKS
Bradley INTL   CLOUDY    39  32  76 S7        29.93F WCI  34
Hartford       CLOUDY    38  34  85 S3        29.94F
Danbury        CLOUDY    38  33  82 CALM      29.92F
Wtrbury/Oxford CLOUDY    37  30  75 SE5       29.92S WCI  34
Bridgeport     CLOUDY    41  36  82 E5        29.93F
Meriden        CLOUDY    40  33  76 SE3       29.94S
New Haven      CLOUDY    40  35  83 E6        29.93F
Chester        MIX PCPN  37  36  93 CALM      29.93S
Groton         CLOUDY    41  34  76 CALM      29.95S
Wilimantic     CLOUDY    40  34  79 S5        29.95S

 IN RI

CITY           SKY/WX    TMP DP  RH WIND       PRES   REMARKS
Providence     CLOUDY    39  32  76 S5        29.95S
Block Island   NOT AVBL
Westerly       CLOUDY    42  32  67 SE3       29.95F
 IN MA

CITY           SKY/WX    TMP DP  RH WIND       PRES   REMARKS
Boston         CLOUDY    39  33  79 S7        29.95F WCI  34
Worcester      CLOUDY    34  27  75 CALM      29.90F
Westfield      CLOUDY    38  32  79 S5        29.92F WCI  34
Provincetown   CLOUDY    39  33  79 CALM      29.97S
Nantucket      CLOUDY    40  31  70 E3        29.96F
$$

ANZ330-335-338-340-345-350-353-355-210300-
COASTAL MARINE OBSERVATIONS


STATION/POSITION TIME  SKY/WX   TEMP    WIND        PRES    VSBY  WAVE
                                AIR SEA DIR/SP/G                  HT/PER
                 (UTC)          (F)     (DEG/KT/KT) (MB)    (MI)  (FT/S)
NY HARB ENTRANCE 0050            43 44  100/  8/ 10 1013.4          4/13
20 S FIRE ISLAND 0050            44 45  160/  4/  6 1013.4          5/11
GREAT SOUTH BAY  NOT AVBL
23 SSW MONTAUK P 0050            45 48  150/ 10/ 12 1014.3          3/12
15 E BARNEGAT LI 0130               47                N/A           4/13
HUDSON CANYON    0050            48 51              1013.5          5/11
KINGS POINT      0130            40 39              1013.3
EXECUTION ROCKS  0145            40      60/  2/  4   N/A
CENTRAL LI SOUND 0115            41     100/  6/  8   N/A           0
EASTERN LI SOUND NOT AVBL
ROBBINS REEF     0130            41     130/  7/  8 1013.5
$$


>>>>>>>>>>>>>>>>>>>>>>>>>>>> KEY <<<<<<<<<<<<<<<<<<<<<<<<<<<
>                                                          <
>     SKY/WX - Sky Condition/Present Weather               <
>     TMP    - Temperature in Fahrenheit                   <
>     DP     - Dew Point in Fahrenheit                     <
>     RH     - Relative Humidity in Percent                <
>     WIND   - Direction (from) and Speed in MPH           <
>     PRES   - Mean Sea Level Pressure (inches of Hg)      <
>     WCI    - Wind Chill Index                            <
>     VSB    - VISIBILITY IN MILES                         <
>     HX     - HEAT INDEX                                  <
>     TC     - TEMPERATURE IN CELSIUS                      <
>     VRB    - VARIABLE WIND DIRECTION                     <
>                                                          <
>>>>>>>>>>>>>>>>>>>>>>>>>>>> KEY <<<<<<<<<<<<<<<<<<<<<<<<<<<




USA.gov is the U.S. government's official web portal to all federal, state and local government web resources and services.